owner,sensor,date,latitude,longitude,vertical_datum,wind_speed,wind_to_direction,wind_speed_of_gust,qcFlag 
DISL,ioos:station:DISL:CATA:1,2017-01-01T00:00:00Z,30.3085,-88.1395,0.0,5.2,148.0,99.0,'11111222,11111222,11144222' 
DISL,ioos:station:DISL:CATA:1,2017-01-01T00:30:00Z,30.3085,-88.1395,0.0,6.1,152.0,99.0,'11111222,11111222,11144222' 
DISL,ioos:station:DISL:CATA:1,2017-01-01T01:00:00Z,30.3085,-88.1395,0.0,7.4,155.0,99.0,'11111222,11111222,11144222' 
DISL,ioos:station:DISL:CATA:1,2017-01-01T01:30:00Z,30.3085,-88.1395,0.0,7.5,153.0,99.0,'11111222,11111222,11144222' 
DISL,ioos:station:DISL:CATA:1,2017-01-01T02:00:00Z,30.3085,-88.1395,0.0,6.9,153.0,99.0,'11111222,11111222,11144222' 
DISL,ioos:station:DISL:CATA:1,2017-01-01T02:30:00Z,30.3085,-88.1395,0.0,8.7,156.0,99.0,'11111222,11111222,11144222' 
DISL,ioos:station:DISL:CATA:1,2017-01-01T03:00:00Z,30.3085,-88.1395,0.0,8.9,156.0,99.0,'11111222,11111222,11144222' 
DISL,ioos:station:DISL:CATA:1,2017-01-01T03:30:00Z,30.3085,-88.1395,0.0,5.2,151.0,99.0,'11111222,11111222,11144222' 
DISL,ioos:station:DISL:CATA:1,2017-01-01T04:00:00Z,30.3085,-88.1395,0.0,3.6,157.0,99.0,'11111222,11111222,11144222' 
DISL,ioos:station:DISL:CATA:1,2017-01-01T04:30:00Z,30.3085,-88.1395,0.0,6.4,161.0,99.0,'11111222,11111222,11144222' 
DISL,ioos:station:DISL:CATA:1,2017-01-01T05:00:00Z,30.3085,-88.1395,0.0,4.4,154.0,99.0,'11111222,11111222,11144222' 
DISL,ioos:station:DISL:CATA:1,2017-01-01T05:30:00Z,30.3085,-88.1395,0.0,10.0,171.0,99.0,'11111222,11111222,11144222' 
DISL,ioos:station:DISL:CATA:1,2017-01-01T06:30:00Z,30.3085,-88.1395,0.0,3.66,226.9,-999.0,'1111122,1111122,1111122' 
DISL,ioos:station:DISL:CATA:1,2017-01-01T07:00:00Z,30.3085,-88.1395,0.0,3.87,181.0,-999.0,'1111122,1111122,1111122' 
DISL,ioos:station:DISL:CATA:1,2017-01-01T07:30:00Z,30.3085,-88.1395,0.0,6.29,182.6,-999.0,'1111122,1111122,1111122' 
DISL,ioos:station:DISL:CATA:1,2017-01-01T08:00:00Z,30.3085,-88.1395,0.0,5.39,165.1,-999.0,'1111122,1111122,1111122' 
DISL,ioos:station:DISL:CATA:1,2017-01-01T08:30:00Z,30.3085,-88.1395,0.0,6.11,237.4,-999.0,'1111122,1111122,1111122' 
DISL,ioos:station:DISL:CATA:1,2017-01-01T09:00:00Z,30.3085,-88.1395,0.0,5.35,313.4,-999.0,'1111122,1111122,1111122' 
DISL,ioos:station:DISL:CATA:1,2017-01-01T09:30:00Z,30.3085,-88.1395,0.0,6.02,307.0,-999.0,'1111122,1111122,1111122' 
DISL,ioos:station:DISL:CATA:1,2017-01-01T10:00:00Z,30.3085,-88.1395,0.0,4.23,307.4,-999.0,'1111122,1111122,1111122' 
DISL,ioos:station:DISL:CATA:1,2017-01-01T10:30:00Z,30.3085,-88.1395,0.0,11.64,238.0,-999.0,'1111122,1111122,1111122' 
DISL,ioos:station:DISL:CATA:1,2017-01-01T11:00:00Z,30.3085,-88.1395,0.0,7.5,239.4,-999.0,'1111122,1111122,1111122' 
DISL,ioos:station:DISL:CATA:1,2017-01-01T11:30:00Z,30.3085,-88.1395,0.0,3.55,241.2,-999.0,'1111122,1111122,1111122' 
DISL,ioos:station:DISL:CATA:1,2017-01-01T12:00:00Z,30.3085,-88.1395,0.0,2.29,258.7,-999.0,'1111122,1111122,1111122' 
DISL,ioos:station:DISL:CATA:1,2017-01-01T12:30:00Z,30.3085,-88.1395,0.0,2.71,295.2,-999.0,'1111122,1111122,1111122' 
DISL,ioos:station:DISL:CATA:1,2017-01-01T13:00:00Z,30.3085,-88.1395,0.0,1.51,304.7,-999.0,'1111122,1111122,1111122' 
DISL,ioos:station:DISL:CATA:1,2017-01-01T13:30:00Z,30.3085,-88.1395,0.0,1.65,129.3,-999.0,'1111122,1111122,1111122' 
DISL,ioos:station:DISL:CATA:1,2017-01-01T14:00:00Z,30.3085,-88.1395,0.0,3.21,125.4,-999.0,'1111122,1111122,1111122' 
DISL,ioos:station:DISL:CATA:1,2017-01-01T14:30:00Z,30.3085,-88.1395,0.0,3.5,114.4,-999.0,'1111122,1111122,1111122' 
DISL,ioos:station:DISL:CATA:1,2017-01-01T15:00:00Z,30.3085,-88.1395,0.0,4.23,133.6,-999.0,'1111122,1111122,1111122' 
DISL,ioos:station:DISL:CATA:1,2017-01-01T15:30:00Z,30.3085,-88.1395,0.0,5.0,157.1,-999.0,'1111122,1111122,1111122' 
DISL,ioos:station:DISL:CATA:1,2017-01-01T16:00:00Z,30.3085,-88.1395,0.0,5.8,165.7,-999.0,'1111122,1111122,1111122' 
DISL,ioos:station:DISL:CATA:1,2017-01-01T16:30:00Z,30.3085,-88.1395,0.0,6.72,173.6,-999.0,'1111122,1111122,1111122' 
DISL,ioos:station:DISL:CATA:1,2017-01-01T17:00:00Z,30.3085,-88.1395,0.0,6.72,178.0,-999.0,'1111122,1111122,1111122' 
DISL,ioos:station:DISL:CATA:1,2017-01-01T17:30:00Z,30.3085,-88.1395,0.0,6.24,192.0,-999.0,'1111122,1111122,1111122' 
DISL,ioos:station:DISL:CATA:1,2017-01-01T18:00:00Z,30.3085,-88.1395,0.0,5.33,202.8,-999.0,'1111122,1111122,1111122' 
DISL,ioos:station:DISL:CATA:1,2017-01-01T18:30:00Z,30.3085,-88.1395,0.0,6.02,200.3,-999.0,'1111122,1111122,1111122' 
DISL,ioos:station:DISL:CATA:1,2017-01-01T19:00:00Z,30.3085,-88.1395,0.0,7.79,193.7,-999.0,'1111122,1111122,1111122' 
DISL,ioos:station:DISL:CATA:1,2017-01-01T19:30:00Z,30.3085,-88.1395,0.0,6.71,192.5,-999.0,'1111122,1111122,1111122' 
DISL,ioos:station:DISL:CATA:1,2017-01-01T20:00:00Z,30.3085,-88.1395,0.0,7.11,187.7,-999.0,'1111122,1111122,1111122' 
DISL,ioos:station:DISL:CATA:1,2017-01-01T20:30:00Z,30.3085,-88.1395,0.0,7.36,192.4,-999.0,'1111122,1111122,1111122' 
DISL,ioos:station:DISL:CATA:1,2017-01-01T21:00:00Z,30.3085,-88.1395,0.0,6.47,193.7,-999.0,'1111122,1111122,1111122' 
DISL,ioos:station:DISL:CATA:1,2017-01-01T21:30:00Z,30.3085,-88.1395,0.0,6.29,193.5,-999.0,'1111122,1111122,1111122' 
DISL,ioos:station:DISL:CATA:1,2017-01-01T22:00:00Z,30.3085,-88.1395,0.0,6.39,186.5,-999.0,'1111122,1111122,1111122' 
DISL,ioos:station:DISL:CATA:1,2017-01-01T22:30:00Z,30.3085,-88.1395,0.0,7.09,187.7,-999.0,'1111122,1111122,1111122' 
DISL,ioos:station:DISL:CATA:1,2017-01-01T23:00:00Z,30.3085,-88.1395,0.0,5.39,182.9,-999.0,'1111122,1111122,1111122' 
DISL,ioos:station:DISL:CATA:1,2017-01-01T23:30:00Z,30.3085,-88.1395,0.0,5.45,192.1,-999.0,'1111122,1111122,1111122' 
DISL,ioos:station:DISL:CATA:1,2017-01-02T00:00:00Z,30.3085,-88.1395,0.0,4.89,174.2,-999.0,'1111122,1111122,1111122' 
DISL,ioos:station:DISL:CATA:1,2017-01-02T00:30:00Z,30.3085,-88.1395,0.0,5.77,176.0,-999.0,'1111122,1111122,1111122' 
DISL,ioos:station:DISL:CATA:1,2017-01-02T01:00:00Z,30.3085,-88.1395,0.0,6.8,177.2,-999.0,'1111122,1111122,1111122' 
DISL,ioos:station:DISL:CATA:1,2017-01-02T01:30:00Z,30.3085,-88.1395,0.0,7.69,184.2,-999.0,'1111122,1111122,1111122' 
DISL,ioos:station:DISL:CATA:1,2017-01-02T02:00:00Z,30.3085,-88.1395,0.0,8.0,183.4,-999.0,'1111122,1111122,1111122' 
DISL,ioos:station:DISL:CATA:1,2017-01-02T02:30:00Z,30.3085,-88.1395,0.0,7.56,272.9,-999.0,'1111122,1111122,1111122' 
DISL,ioos:station:DISL:CATA:1,2017-01-02T03:00:00Z,30.3085,-88.1395,0.0,2.85,288.7,-999.0,'1111122,1111122,1111122' 
DISL,ioos:station:DISL:CATA:1,2017-01-02T03:30:00Z,30.3085,-88.1395,0.0,3.01,349.9,-999.0,'1111122,1111122,1111122' 
DISL,ioos:station:DISL:CATA:1,2017-01-02T04:00:00Z,30.3085,-88.1395,0.0,2.32,356.0,-999.0,'1111122,1111122,1111122' 
DISL,ioos:station:DISL:CATA:1,2017-01-02T04:30:00Z,30.3085,-88.1395,0.0,2.78,345.3,-999.0,'1111122,1111122,1111122' 
DISL,ioos:station:DISL:CATA:1,2017-01-02T05:00:00Z,30.3085,-88.1395,0.0,5.85,302.2,-999.0,'1111122,1111122,1111122' 
DISL,ioos:station:DISL:CATA:1,2017-01-02T05:30:00Z,30.3085,-88.1395,0.0,2.04,347.5,-999.0,'1111122,1111122,1111122' 
DISL,ioos:station:DISL:CATA:1,2017-01-02T06:00:00Z,30.3085,-88.1395,0.0,2.54,98.5,-999.0,'1111122,1111122,1111122' 
DISL,ioos:station:DISL:CATA:1,2017-01-02T06:30:00Z,30.3085,-88.1395,0.0,5.03,118.7,-999.0,'1111122,1111122,1111122' 
DISL,ioos:station:DISL:CATA:1,2017-01-02T07:00:00Z,30.3085,-88.1395,0.0,4.72,124.0,-999.0,'1111122,1111122,1111122' 
DISL,ioos:station:DISL:CATA:1,2017-01-02T07:30:00Z,30.3085,-88.1395,0.0,4.49,116.9,-999.0,'1111122,1111122,1111122' 
DISL,ioos:station:DISL:CATA:1,2017-01-02T08:00:00Z,30.3085,-88.1395,0.0,4.77,133.6,-999.0,'1111122,1111122,1111122' 
DISL,ioos:station:DISL:CATA:1,2017-01-02T08:30:00Z,30.3085,-88.1395,0.0,3.25,120.8,-999.0,'1111122,1111122,1111122' 
DISL,ioos:station:DISL:CATA:1,2017-01-02T09:00:00Z,30.3085,-88.1395,0.0,3.77,108.8,-999.0,'1111122,1111122,1111122' 
DISL,ioos:station:DISL:CATA:1,2017-01-02T09:30:00Z,30.3085,-88.1395,0.0,4.1,117.3,-999.0,'1111122,1111122,1111122' 
DISL,ioos:station:DISL:CATA:1,2017-01-02T10:00:00Z,30.3085,-88.1395,0.0,5.34,123.4,-999.0,'1111122,1111122,1111122' 
DISL,ioos:station:DISL:CATA:1,2017-01-02T10:30:00Z,30.3085,-88.1395,0.0,3.9,138.0,-999.0,'1111122,1111122,1111122' 
DISL,ioos:station:DISL:CATA:1,2017-01-02T11:00:00Z,30.3085,-88.1395,0.0,4.82,116.4,-999.0,'1111122,1111122,1111122' 
DISL,ioos:station:DISL:CATA:1,2017-01-02T11:30:00Z,30.3085,-88.1395,0.0,3.28,132.0,-999.0,'1111122,1111122,1111122' 
DISL,ioos:station:DISL:CATA:1,2017-01-02T12:00:00Z,30.3085,-88.1395,0.0,3.55,123.0,-999.0,'1111122,1111122,1111122' 
DISL,ioos:station:DISL:CATA:1,2017-01-02T12:30:00Z,30.3085,-88.1395,0.0,2.84,132.0,-999.0,'1111122,1111122,1111122' 
DISL,ioos:station:DISL:CATA:1,2017-01-02T13:00:00Z,30.3085,-88.1395,0.0,2.7,116.3,-999.0,'1111122,1111122,1111122' 
DISL,ioos:station:DISL:CATA:1,2017-01-02T13:30:00Z,30.3085,-88.1395,0.0,4.55,133.3,-999.0,'1111122,1111122,1111122' 
DISL,ioos:station:DISL:CATA:1,2017-01-02T14:00:00Z,30.3085,-88.1395,0.0,6.1,149.9,-999.0,'1111122,1111122,1111122' 
DISL,ioos:station:DISL:CATA:1,2017-01-02T14:30:00Z,30.3085,-88.1395,0.0,6.89,156.5,-999.0,'1111122,1111122,1111122' 
DISL,ioos:station:DISL:CATA:1,2017-01-02T15:00:00Z,30.3085,-88.1395,0.0,6.93,152.2,-999.0,'1111122,1111122,1111122' 
DISL,ioos:station:DISL:CATA:1,2017-01-02T15:30:00Z,30.3085,-88.1395,0.0,7.22,150.0,-999.0,'1111122,1111122,1111122' 
DISL,ioos:station:DISL:CATA:1,2017-01-02T16:00:00Z,30.3085,-88.1395,0.0,7.51,153.3,-999.0,'1111122,1111122,1111122' 
DISL,ioos:station:DISL:CATA:1,2017-01-02T16:30:00Z,30.3085,-88.1395,0.0,8.54,153.9,-999.0,'1111122,1111122,1111122' 
DISL,ioos:station:DISL:CATA:1,2017-01-02T17:00:00Z,30.3085,-88.1395,0.0,10.39,164.3,-999.0,'1111122,1111122,1111122' 
DISL,ioos:station:DISL:CATA:1,2017-01-02T17:30:00Z,30.3085,-88.1395,0.0,10.61,163.2,-999.0,'1111122,1111122,1111122' 
DISL,ioos:station:DISL:CATA:1,2017-01-02T18:00:00Z,30.3085,-88.1395,0.0,11.08,165.7,-999.0,'1111122,1111122,1111122' 
DISL,ioos:station:DISL:CATA:1,2017-01-02T18:30:00Z,30.3085,-88.1395,0.0,9.92,170.7,-999.0,'1111122,1111122,1111122' 
DISL,ioos:station:DISL:CATA:1,2017-01-02T19:00:00Z,30.3085,-88.1395,0.0,11.8,162.0,-999.0,'1111122,1111122,1111122' 
DISL,ioos:station:DISL:CATA:1,2017-01-02T19:30:00Z,30.3085,-88.1395,0.0,9.25,172.7,-999.0,'1111122,1111122,1111122' 
DISL,ioos:station:DISL:CATA:1,2017-01-02T20:00:00Z,30.3085,-88.1395,0.0,9.41,180.2,-999.0,'1111122,1111122,1111122' 
DISL,ioos:station:DISL:CATA:1,2017-01-02T20:30:00Z,30.3085,-88.1395,0.0,14.75,159.6,-999.0,'1111122,1111122,1111122' 
DISL,ioos:station:DISL:CATA:1,2017-01-02T21:00:00Z,30.3085,-88.1395,0.0,6.48,173.4,-999.0,'1111122,1111122,1111122' 
DISL,ioos:station:DISL:CATA:1,2017-01-02T21:30:00Z,30.3085,-88.1395,0.0,5.59,164.8,-999.0,'1111122,1111122,1111122' 
DISL,ioos:station:DISL:CATA:1,2017-01-02T22:00:00Z,30.3085,-88.1395,0.0,11.38,195.9,-999.0,'1111122,1111122,1111122' 
DISL,ioos:station:DISL:CATA:1,2017-01-02T22:30:00Z,30.3085,-88.1395,0.0,10.92,168.2,-999.0,'1111122,1111122,1111122' 
DISL,ioos:station:DISL:CATA:1,2017-01-02T23:00:00Z,30.3085,-88.1395,0.0,11.96,205.9,-999.0,'1111122,1111122,1111122' 
DISL,ioos:station:DISL:CATA:1,2017-01-02T23:30:00Z,30.3085,-88.1395,0.0,10.93,283.1,-999.0,'1111122,1111122,1111122' 
DISL,ioos:station:DISL:CATA:1,2017-01-03T00:00:00Z,30.3085,-88.1395,0.0,6.63,315.5,-999.0,'1111122,1111122,1111122' 
DISL,ioos:station:DISL:CATA:1,2017-01-03T00:30:00Z,30.3085,-88.1395,0.0,2.37,8.1,-999.0,'1111122,1111122,1111122' 
DISL,ioos:station:DISL:CATA:1,2017-01-03T01:00:00Z,30.3085,-88.1395,0.0,4.79,114.0,-999.0,'1111122,1111122,1111122' 
DISL,ioos:station:DISL:CATA:1,2017-01-03T01:30:00Z,30.3085,-88.1395,0.0,2.68,71.32,-999.0,'1111122,1111122,1111122' 
DISL,ioos:station:DISL:CATA:1,2017-01-03T02:00:00Z,30.3085,-88.1395,0.0,1.29,87.6,-999.0,'1111122,1111122,1111122' 
DISL,ioos:station:DISL:CATA:1,2017-01-03T02:30:00Z,30.3085,-88.1395,0.0,1.02,70.11,-999.0,'1111122,1111122,1111122' 
DISL,ioos:station:DISL:CATA:1,2017-01-03T03:00:00Z,30.3085,-88.1395,0.0,2.73,183.6,-999.0,'1111122,1111122,1111122' 
DISL,ioos:station:DISL:CATA:1,2017-01-03T03:30:00Z,30.3085,-88.1395,0.0,7.72,211.1,-999.0,'1111122,1111122,1111122' 
DISL,ioos:station:DISL:CATA:1,2017-01-03T04:00:00Z,30.3085,-88.1395,0.0,6.24,216.5,-999.0,'1111122,1111122,1111122' 
DISL,ioos:station:DISL:CATA:1,2017-01-03T04:30:00Z,30.3085,-88.1395,0.0,10.45,213.4,-999.0,'1111122,1111122,1111122' 
DISL,ioos:station:DISL:CATA:1,2017-01-03T05:00:00Z,30.3085,-88.1395,0.0,9.02,215.1,-999.0,'1111122,1111122,1111122' 
DISL,ioos:station:DISL:CATA:1,2017-01-03T05:30:00Z,30.3085,-88.1395,0.0,8.58,220.3,-999.0,'1111122,1111122,1111122' 
DISL,ioos:station:DISL:CATA:1,2017-01-03T06:00:00Z,30.3085,-88.1395,0.0,7.64,230.8,-999.0,'1111122,1111122,1111122' 
DISL,ioos:station:DISL:CATA:1,2017-01-03T06:30:00Z,30.3085,-88.1395,0.0,8.0,282.6,-999.0,'1111122,1111122,1111122' 
DISL,ioos:station:DISL:CATA:1,2017-01-03T07:00:00Z,30.3085,-88.1395,0.0,8.34,256.2,-999.0,'1111122,1111122,1111122' 
DISL,ioos:station:DISL:CATA:1,2017-01-03T07:30:00Z,30.3085,-88.1395,0.0,7.01,272.6,-999.0,'1111122,1111122,1111122' 
DISL,ioos:station:DISL:CATA:1,2017-01-03T08:00:00Z,30.3085,-88.1395,0.0,5.99,265.2,-999.0,'1111122,1111122,1111122' 
DISL,ioos:station:DISL:CATA:1,2017-01-03T08:30:00Z,30.3085,-88.1395,0.0,5.21,289.2,-999.0,'1111122,1111122,1111122' 
DISL,ioos:station:DISL:CATA:1,2017-01-03T09:00:00Z,30.3085,-88.1395,0.0,5.33,324.7,-999.0,'1111122,1111122,1111122' 
DISL,ioos:station:DISL:CATA:1,2017-01-03T09:30:00Z,30.3085,-88.1395,0.0,4.53,331.9,-999.0,'1111122,1111122,1111122' 
DISL,ioos:station:DISL:CATA:1,2017-01-03T10:00:00Z,30.3085,-88.1395,0.0,3.5,329.5,-999.0,'1111122,1111122,1111122' 
DISL,ioos:station:DISL:CATA:1,2017-01-03T10:30:00Z,30.3085,-88.1395,0.0,3.44,325.9,-999.0,'1111122,1111122,1111122' 
DISL,ioos:station:DISL:CATA:1,2017-01-03T11:00:00Z,30.3085,-88.1395,0.0,2.91,324.0,-999.0,'1111122,1111122,1111122' 
DISL,ioos:station:DISL:CATA:1,2017-01-03T11:30:00Z,30.3085,-88.1395,0.0,3.03,324.8,-999.0,'1111122,1111122,1111122' 
DISL,ioos:station:DISL:CATA:1,2017-01-03T12:00:00Z,30.3085,-88.1395,0.0,3.56,320.7,-999.0,'1111122,1111122,1111122' 
DISL,ioos:station:DISL:CATA:1,2017-01-03T12:30:00Z,30.3085,-88.1395,0.0,3.24,326.6,-999.0,'1111122,1111122,1111122' 
DISL,ioos:station:DISL:CATA:1,2017-01-03T13:00:00Z,30.3085,-88.1395,0.0,2.82,323.0,-999.0,'1111122,1111122,1111122' 
DISL,ioos:station:DISL:CATA:1,2017-01-03T13:30:00Z,30.3085,-88.1395,0.0,3.52,327.3,-999.0,'1111122,1111122,1111122' 
DISL,ioos:station:DISL:CATA:1,2017-01-03T14:00:00Z,30.3085,-88.1395,0.0,2.6,328.4,-999.0,'1111122,1111122,1111122' 
DISL,ioos:station:DISL:CATA:1,2017-01-03T14:30:00Z,30.3085,-88.1395,0.0,0.86,276.9,-999.0,'1111122,1111122,1111122' 
DISL,ioos:station:DISL:CATA:1,2017-01-03T15:00:00Z,30.3085,-88.1395,0.0,0.71,210.1,-999.0,'1111122,1111122,1111122' 
DISL,ioos:station:DISL:CATA:1,2017-01-03T15:30:00Z,30.3085,-88.1395,0.0,1.32,259.5,-999.0,'1111122,1111122,1111122' 
DISL,ioos:station:DISL:CATA:1,2017-01-03T16:00:00Z,30.3085,-88.1395,0.0,1.87,228.9,-999.0,'1111122,1111122,1111122' 
DISL,ioos:station:DISL:CATA:1,2017-01-03T16:30:00Z,30.3085,-88.1395,0.0,1.93,227.0,-999.0,'1111122,1111122,1111122' 
DISL,ioos:station:DISL:CATA:1,2017-01-03T17:00:00Z,30.3085,-88.1395,0.0,2.22,225.7,-999.0,'1111122,1111122,1111122' 
DISL,ioos:station:DISL:CATA:1,2017-01-03T17:30:00Z,30.3085,-88.1395,0.0,2.59,236.0,-999.0,'1111122,1111122,1111122' 
DISL,ioos:station:DISL:CATA:1,2017-01-03T18:00:00Z,30.3085,-88.1395,0.0,2.95,248.0,-999.0,'1111122,1111122,1111122' 
DISL,ioos:station:DISL:CATA:1,2017-01-03T18:30:00Z,30.3085,-88.1395,0.0,4.24,241.3,-999.0,'1111122,1111122,1111122' 
DISL,ioos:station:DISL:CATA:1,2017-01-03T19:00:00Z,30.3085,-88.1395,0.0,4.22,259.0,-999.0,'1111122,1111122,1111122' 
DISL,ioos:station:DISL:CATA:1,2017-01-03T19:30:00Z,30.3085,-88.1395,0.0,5.53,251.9,-999.0,'1111122,1111122,1111122' 
DISL,ioos:station:DISL:CATA:1,2017-01-03T20:00:00Z,30.3085,-88.1395,0.0,4.86,252.4,-999.0,'1111122,1111122,1111122' 
DISL,ioos:station:DISL:CATA:1,2017-01-03T20:30:00Z,30.3085,-88.1395,0.0,5.05,259.4,-999.0,'1111122,1111122,1111122' 
DISL,ioos:station:DISL:CATA:1,2017-01-03T21:00:00Z,30.3085,-88.1395,0.0,5.18,247.6,-999.0,'1111122,1111122,1111122' 
DISL,ioos:station:DISL:CATA:1,2017-01-03T21:30:00Z,30.3085,-88.1395,0.0,5.74,246.7,-999.0,'1111122,1111122,1111122' 
DISL,ioos:station:DISL:CATA:1,2017-01-03T22:00:00Z,30.3085,-88.1395,0.0,5.26,258.1,-999.0,'1111122,1111122,1111122' 
DISL,ioos:station:DISL:CATA:1,2017-01-03T22:30:00Z,30.3085,-88.1395,0.0,4.02,242.8,-999.0,'1111122,1111122,1111122' 
DISL,ioos:station:DISL:CATA:1,2017-01-03T23:00:00Z,30.3085,-88.1395,0.0,4.68,257.9,-999.0,'1111122,1111122,1111122' 
DISL,ioos:station:DISL:CATA:1,2017-01-03T23:30:00Z,30.3085,-88.1395,0.0,4.84,265.2,-999.0,'1111122,1111122,1111122' 
DISL,ioos:station:DISL:CATA:1,2017-01-04T00:00:00Z,30.3085,-88.1395,0.0,4.89,267.2,-999.0,'1111122,1111122,1111122' 
DISL,ioos:station:DISL:CATA:1,2017-01-04T00:30:00Z,30.3085,-88.1395,0.0,4.5,250.8,-999.0,'1111122,1111122,1111122' 
DISL,ioos:station:DISL:CATA:1,2017-01-04T01:00:00Z,30.3085,-88.1395,0.0,2.96,240.8,-999.0,'1111122,1111122,1111122' 
DISL,ioos:station:DISL:CATA:1,2017-01-04T01:30:00Z,30.3085,-88.1395,0.0,2.4,260.6,-999.0,'1111122,1111122,1111122' 
DISL,ioos:station:DISL:CATA:1,2017-01-04T02:00:00Z,30.3085,-88.1395,0.0,4.66,243.7,-999.0,'1111122,1111122,1111122' 
DISL,ioos:station:DISL:CATA:1,2017-01-04T02:30:00Z,30.3085,-88.1395,0.0,3.63,242.5,-999.0,'1111122,1111122,1111122' 
DISL,ioos:station:DISL:CATA:1,2017-01-04T03:00:00Z,30.3085,-88.1395,0.0,3.34,279.2,-999.0,'1111122,1111122,1111122' 
DISL,ioos:station:DISL:CATA:1,2017-01-04T03:30:00Z,30.3085,-88.1395,0.0,2.5,276.7,-999.0,'1111122,1111122,1111122' 
DISL,ioos:station:DISL:CATA:1,2017-01-04T04:00:00Z,30.3085,-88.1395,0.0,2.54,258.3,-999.0,'1111122,1111122,1111122' 
DISL,ioos:station:DISL:CATA:1,2017-01-04T04:30:00Z,30.3085,-88.1395,0.0,2.09,250.5,-999.0,'1111122,1111122,1111122' 
DISL,ioos:station:DISL:CATA:1,2017-01-04T05:00:00Z,30.3085,-88.1395,0.0,3.84,243.8,-999.0,'1111122,1111122,1111122' 
DISL,ioos:station:DISL:CATA:1,2017-01-04T05:30:00Z,30.3085,-88.1395,0.0,4.52,234.3,-999.0,'1111122,1111122,1111122' 
DISL,ioos:station:DISL:CATA:1,2017-01-04T06:00:00Z,30.3085,-88.1395,0.0,4.8,234.7,-999.0,'1111122,1111122,1111122' 
DISL,ioos:station:DISL:CATA:1,2017-01-04T06:30:00Z,30.3085,-88.1395,0.0,4.51,240.7,-999.0,'1111122,1111122,1111122' 
DISL,ioos:station:DISL:CATA:1,2017-01-04T07:00:00Z,30.3085,-88.1395,0.0,4.94,246.8,-999.0,'1111122,1111122,1111122' 
DISL,ioos:station:DISL:CATA:1,2017-01-04T07:30:00Z,30.3085,-88.1395,0.0,5.02,243.7,-999.0,'1111122,1111122,1111122' 
DISL,ioos:station:DISL:CATA:1,2017-01-04T08:00:00Z,30.3085,-88.1395,0.0,5.09,240.8,-999.0,'1111122,1111122,1111122' 
DISL,ioos:station:DISL:CATA:1,2017-01-04T08:30:00Z,30.3085,-88.1395,0.0,4.74,246.9,-999.0,'1111122,1111122,1111122' 
DISL,ioos:station:DISL:CATA:1,2017-01-04T09:00:00Z,30.3085,-88.1395,0.0,4.73,257.8,-999.0,'1111122,1111122,1111122' 
DISL,ioos:station:DISL:CATA:1,2017-01-04T09:30:00Z,30.3085,-88.1395,0.0,5.07,272.3,-999.0,'1111122,1111122,1111122' 
DISL,ioos:station:DISL:CATA:1,2017-01-04T10:00:00Z,30.3085,-88.1395,0.0,5.81,301.8,-999.0,'1111122,1111122,1111122' 
DISL,ioos:station:DISL:CATA:1,2017-01-04T10:30:00Z,30.3085,-88.1395,0.0,6.27,323.6,-999.0,'1111122,1111122,1111122' 
DISL,ioos:station:DISL:CATA:1,2017-01-04T11:00:00Z,30.3085,-88.1395,0.0,6.41,356.6,-999.0,'1111122,1111122,1111122' 
DISL,ioos:station:DISL:CATA:1,2017-01-04T11:30:00Z,30.3085,-88.1395,0.0,6.36,5.363,-999.0,'1111122,1111122,1111122' 
DISL,ioos:station:DISL:CATA:1,2017-01-04T12:00:00Z,30.3085,-88.1395,0.0,7.37,10.96,-999.0,'1111122,1111122,1111122' 
DISL,ioos:station:DISL:CATA:1,2017-01-04T12:30:00Z,30.3085,-88.1395,0.0,5.53,9.52,-999.0,'1111122,1111122,1111122' 
DISL,ioos:station:DISL:CATA:1,2017-01-04T13:00:00Z,30.3085,-88.1395,0.0,5.03,15.19,-999.0,'1111122,1111122,1111122' 
DISL,ioos:station:DISL:CATA:1,2017-01-04T13:30:00Z,30.3085,-88.1395,0.0,4.5,12.55,-999.0,'1111122,1111122,1111122' 
DISL,ioos:station:DISL:CATA:1,2017-01-04T14:00:00Z,30.3085,-88.1395,0.0,4.97,356.1,-999.0,'1111122,1111122,1111122' 
DISL,ioos:station:DISL:CATA:1,2017-01-04T14:30:00Z,30.3085,-88.1395,0.0,5.01,1.909,-999.0,'1111122,1111122,1111122' 
DISL,ioos:station:DISL:CATA:1,2017-01-04T15:00:00Z,30.3085,-88.1395,0.0,5.17,20.38,-999.0,'1111122,1111122,1111122' 
DISL,ioos:station:DISL:CATA:1,2017-01-04T15:30:00Z,30.3085,-88.1395,0.0,6.4,5.519,-999.0,'1111122,1111122,1111122' 
DISL,ioos:station:DISL:CATA:1,2017-01-04T16:00:00Z,30.3085,-88.1395,0.0,5.81,1.022,-999.0,'1111122,1111122,1111122' 
DISL,ioos:station:DISL:CATA:1,2017-01-04T16:30:00Z,30.3085,-88.1395,0.0,5.67,8.72,-999.0,'1111122,1111122,1111122' 
DISL,ioos:station:DISL:CATA:1,2017-01-04T17:00:00Z,30.3085,-88.1395,0.0,6.4,349.8,-999.0,'1111122,1111122,1111122' 
DISL,ioos:station:DISL:CATA:1,2017-01-04T17:30:00Z,30.3085,-88.1395,0.0,5.4,354.7,-999.0,'1111122,1111122,1111122' 
DISL,ioos:station:DISL:CATA:1,2017-01-04T18:00:00Z,30.3085,-88.1395,0.0,6.13,3.107,-999.0,'1111122,1111122,1111122' 
DISL,ioos:station:DISL:CATA:1,2017-01-04T18:30:00Z,30.3085,-88.1395,0.0,5.28,358.1,-999.0,'1111122,1111122,1111122' 
DISL,ioos:station:DISL:CATA:1,2017-01-04T19:00:00Z,30.3085,-88.1395,0.0,5.46,353.7,-999.0,'1111122,1111122,1111122' 
DISL,ioos:station:DISL:CATA:1,2017-01-04T19:30:00Z,30.3085,-88.1395,0.0,5.87,346.0,-999.0,'1111122,1111122,1111122' 
DISL,ioos:station:DISL:CATA:1,2017-01-04T20:00:00Z,30.3085,-88.1395,0.0,6.02,345.8,-999.0,'1111122,1111122,1111122' 
DISL,ioos:station:DISL:CATA:1,2017-01-04T20:30:00Z,30.3085,-88.1395,0.0,7.44,344.1,-999.0,'1111122,1111122,1111122' 
DISL,ioos:station:DISL:CATA:1,2017-01-04T21:00:00Z,30.3085,-88.1395,0.0,7.72,338.8,-999.0,'1111122,1111122,1111122' 
DISL,ioos:station:DISL:CATA:1,2017-01-04T21:30:00Z,30.3085,-88.1395,0.0,6.24,337.4,-999.0,'1111122,1111122,1111122' 
DISL,ioos:station:DISL:CATA:1,2017-01-04T22:00:00Z,30.3085,-88.1395,0.0,5.31,352.8,-999.0,'1111122,1111122,1111122' 
DISL,ioos:station:DISL:CATA:1,2017-01-04T22:30:00Z,30.3085,-88.1395,0.0,4.74,2.756,-999.0,'1111122,1111122,1111122' 
DISL,ioos:station:DISL:CATA:1,2017-01-04T23:00:00Z,30.3085,-88.1395,0.0,6.26,22.9,-999.0,'1111122,1111122,1111122' 
DISL,ioos:station:DISL:CATA:1,2017-01-04T23:30:00Z,30.3085,-88.1395,0.0,6.58,17.71,-999.0,'1111122,1111122,1111122' 
DISL,ioos:station:DISL:CATA:1,2017-01-05T00:00:00Z,30.3085,-88.1395,0.0,6.21,18.09,-999.0,'1111122,1111122,1111122' 
DISL,ioos:station:DISL:CATA:1,2017-01-05T00:30:00Z,30.3085,-88.1395,0.0,4.84,8.76,-999.0,'1111122,1111122,1111122' 
DISL,ioos:station:DISL:CATA:1,2017-01-05T01:00:00Z,30.3085,-88.1395,0.0,4.97,20.6,-999.0,'1111122,1111122,1111122' 
DISL,ioos:station:DISL:CATA:1,2017-01-05T01:30:00Z,30.3085,-88.1395,0.0,5.28,11.59,-999.0,'1111122,1111122,1111122' 
DISL,ioos:station:DISL:CATA:1,2017-01-05T02:00:00Z,30.3085,-88.1395,0.0,5.86,19.71,-999.0,'1111122,1111122,1111122' 
DISL,ioos:station:DISL:CATA:1,2017-01-05T02:30:00Z,30.3085,-88.1395,0.0,5.34,15.85,-999.0,'1111122,1111122,1111122' 
DISL,ioos:station:DISL:CATA:1,2017-01-05T03:00:00Z,30.3085,-88.1395,0.0,4.65,12.31,-999.0,'1111122,1111122,1111122' 
DISL,ioos:station:DISL:CATA:1,2017-01-05T03:30:00Z,30.3085,-88.1395,0.0,4.0,4.708,-999.0,'1111122,1111122,1111122' 
DISL,ioos:station:DISL:CATA:1,2017-01-05T04:00:00Z,30.3085,-88.1395,0.0,7.68,49.38,-999.0,'1111122,1111122,1111122' 
DISL,ioos:station:DISL:CATA:1,2017-01-05T04:30:00Z,30.3085,-88.1395,0.0,6.62,55.25,-999.0,'1111122,1111122,1111122' 
DISL,ioos:station:DISL:CATA:1,2017-01-05T05:00:00Z,30.3085,-88.1395,0.0,6.12,58.09,-999.0,'1111122,1111122,1111122' 
DISL,ioos:station:DISL:CATA:1,2017-01-05T05:30:00Z,30.3085,-88.1395,0.0,5.65,66.36,-999.0,'1111122,1111122,1111122' 
DISL,ioos:station:DISL:CATA:1,2017-01-05T06:00:00Z,30.3085,-88.1395,0.0,4.62,62.5,-999.0,'1111122,1111122,1111122' 